AAL598 KCLT-KMIA

Flight info

Callsign AAL598
Flight time 1h 25m
Altitude 36000
Route ICONS5 NOOKS WURFL Q83 JEVED Q97 DEBRL CSTAL3
Aircraft B38M/M-SDE1FGHILORVWXY/HB1

Departure

Time 2026-05-08 01:22
Airport Charlotte Douglas International Airport (KCLT)

Arrival

Time 2026-05-08 02:48
Airport Miami International Airport (KMIA)
Time Latitude Longitude Altitude Speed Heading
2026-05-08 01:04 35.21797 -80.94284 742 ft 0 kts 70°
2026-05-08 01:11 35.21798 -80.94282 735 ft 0 kts 70°
2026-05-08 01:12 35.21795 -80.94292 734 ft 2 kts 70°
2026-05-08 01:12 35.21789 -80.94310 734 ft 2 kts 70°
2026-05-08 01:12 35.21784 -80.94329 736 ft 2 kts 70°
2026-05-08 01:12 35.21778 -80.94348 735 ft 2 kts 70°
2026-05-08 01:13 35.21777 -80.94353 735 ft 0 kts 65°
2026-05-08 01:13 35.21778 -80.94352 735 ft 0 kts 52°
2026-05-08 01:14 35.21779 -80.94352 735 ft 0 kts 38°
2026-05-08 01:14 35.21783 -80.94351 735 ft 2 kts 12°
2026-05-08 01:14 35.21788 -80.94350 733 ft 2 kts 12°
2026-05-08 01:15 35.21798 -80.94347 734 ft 0 kts 10°
2026-05-08 01:15 35.21799 -80.94347 734 ft 0 kts 10°
2026-05-08 01:16 35.21806 -80.94354 734 ft 3 kts 304°
2026-05-08 01:16 35.21785 -80.94370 735 ft 4 kts 184°
2026-05-08 01:16 35.21745 -80.94374 735 ft 13 kts 185°
2026-05-08 01:16 35.21691 -80.94380 735 ft 0 kts 185°
2026-05-08 01:17 35.21650 -80.94384 735 ft 12 kts 185°
2026-05-08 01:17 35.21636 -80.94386 735 ft 0 kts 198°
2026-05-08 01:17 35.21625 -80.94392 735 ft 11 kts 207°
2026-05-08 01:18 35.21569 -80.94558 735 ft 27 kts 270°
2026-05-08 01:18 35.21576 -80.94802 735 ft 26 kts 274°
2026-05-08 01:18 35.21592 -80.94920 735 ft 13 kts 279°
2026-05-08 01:18 35.21569 -80.95000 736 ft 9 kts 193°
2026-05-08 01:19 35.21502 -80.95008 736 ft 11 kts 177°
2026-05-08 01:19 35.21370 -80.94999 735 ft 27 kts 176°
2026-05-08 01:19 35.21159 -80.94981 735 ft 33 kts 176°
2026-05-08 01:19 35.20928 -80.94964 727 ft 41 kts 177°
2026-05-08 01:20 35.20636 -80.94932 735 ft 35 kts 179°
2026-05-08 01:20 35.20387 -80.94915 736 ft 30 kts 175°
2026-05-08 01:20 35.20172 -80.94895 735 ft 32 kts 175°
2026-05-08 01:20 35.20037 -80.94901 735 ft 13 kts 219°
2026-05-08 01:21 35.20016 -80.94963 736 ft 0 kts 262°
2026-05-08 01:21 35.20016 -80.94964 736 ft 0 kts 262°
2026-05-08 01:21 35.20013 -80.94995 737 ft 9 kts 262°
2026-05-08 01:21 35.20043 -80.95084 738 ft 9 kts 341°
2026-05-08 01:22 35.20175 -80.95098 740 ft 49 kts 356°
2026-05-08 01:22 35.20818 -80.95154 740 ft 132 kts 355°
2026-05-08 01:22 35.21929 -80.95324 871 ft 184 kts 358°
2026-05-08 01:22 35.23242 -80.95202 1813 ft 186 kts 13°
2026-05-08 01:23 35.24461 -80.94722 3054 ft 188 kts 17°
2026-05-08 01:23 35.25740 -80.94111 3746 ft 209 kts 28°
2026-05-08 01:23 35.26672 -80.92666 4352 ft 228 kts 65°
2026-05-08 01:23 35.26926 -80.90661 5247 ft 235 kts 88°
2026-05-08 01:24 35.26598 -80.88652 6089 ft 253 kts 123°
2026-05-08 01:24 35.25436 -80.87018 6865 ft 262 kts 141°
2026-05-08 01:24 35.24044 -80.85461 7565 ft 281 kts 142°
2026-05-08 01:24 35.22570 -80.83804 8372 ft 295 kts 142°
2026-05-08 01:25 35.21049 -80.82053 9299 ft 303 kts 142°
2026-05-08 01:25 35.19507 -80.80264 10277 ft 308 kts 145°
2026-05-08 01:25 35.17648 -80.78986 10861 ft 309 kts 174°
2026-05-08 01:25 35.15534 -80.78978 11348 ft 306 kts 202°
2026-05-08 01:26 35.13534 -80.79926 11920 ft 318 kts 207°
2026-05-08 01:26 35.11410 -80.80774 12558 ft 332 kts 204°
2026-05-08 01:26 35.09172 -80.81589 13408 ft 338 kts 204°
2026-05-08 01:26 35.06897 -80.82387 14244 ft 343 kts 204°
2026-05-08 01:27 35.04596 -80.83175 15111 ft 344 kts 205°
2026-05-08 01:27 35.02252 -80.83966 15980 ft 346 kts 206°
2026-05-08 01:27 34.99950 -80.84733 16772 ft 348 kts 207°
2026-05-08 01:27 34.97560 -80.85384 17572 ft 361 kts 199°
2026-05-08 01:28 34.95024 -80.85594 18374 ft 368 kts 196°
2026-05-08 01:28 34.92458 -80.85756 19031 ft 371 kts 197°
2026-05-08 01:28 34.89874 -80.85929 19685 ft 372 kts 197°
2026-05-08 01:28 34.87278 -80.86107 20323 ft 375 kts 197°
2026-05-08 01:29 34.84668 -80.86286 20957 ft 377 kts 197°
2026-05-08 01:29 34.82041 -80.86468 21538 ft 380 kts 197°
2026-05-08 01:29 34.79392 -80.86651 22126 ft 383 kts 197°
2026-05-08 01:29 34.76718 -80.86835 22711 ft 386 kts 197°
2026-05-08 01:30 34.74030 -80.87021 23286 ft 388 kts 197°
2026-05-08 01:30 34.71321 -80.87208 23778 ft 391 kts 197°
2026-05-08 01:30 34.68595 -80.87397 24259 ft 393 kts 197°
2026-05-08 01:30 34.65851 -80.87586 24740 ft 396 kts 197°
2026-05-08 01:31 34.63090 -80.87776 25130 ft 400 kts 197°
2026-05-08 01:31 34.60316 -80.87967 25504 ft 404 kts 197°
2026-05-08 01:31 34.57505 -80.88160 25979 ft 406 kts 197°
2026-05-08 01:31 34.54670 -80.88355 26396 ft 409 kts 197°
2026-05-08 01:32 34.51818 -80.88550 26823 ft 412 kts 197°
2026-05-08 01:32 34.48942 -80.88749 27198 ft 416 kts 197°
2026-05-08 01:32 34.46048 -80.88947 27653 ft 417 kts 197°
2026-05-08 01:32 34.43141 -80.89146 28060 ft 420 kts 198°
2026-05-08 01:33 34.40212 -80.89346 28479 ft 422 kts 197°
2026-05-08 01:33 34.37449 -80.89536 28766 ft 426 kts 197°
2026-05-08 01:33 34.34385 -80.89746 29043 ft 432 kts 197°
2026-05-08 01:33 34.31425 -80.89948 29495 ft 432 kts 197°
2026-05-08 01:34 34.28414 -80.90153 29840 ft 436 kts 197°
2026-05-08 01:34 34.25371 -80.90361 30179 ft 438 kts 197°
2026-05-08 01:34 34.22324 -80.90568 30530 ft 439 kts 197°
2026-05-08 01:34 34.19259 -80.90777 30866 ft 441 kts 197°
2026-05-08 01:35 34.16189 -80.90986 31221 ft 443 kts 197°
2026-05-08 01:35 34.13106 -80.91196 31521 ft 444 kts 197°
2026-05-08 01:35 34.10012 -80.91406 31837 ft 446 kts 196°
2026-05-08 01:35 34.06915 -80.91616 32299 ft 445 kts 197°
2026-05-08 01:36 34.03840 -80.91825 32827 ft 441 kts 197°
2026-05-08 01:36 34.00779 -80.92033 33353 ft 438 kts 197°
2026-05-08 01:36 33.97784 -80.92236 33875 ft 435 kts 197°
2026-05-08 01:36 33.94769 -80.92441 34313 ft 433 kts 197°
2026-05-08 01:37 33.91764 -80.92644 34690 ft 432 kts 197°
2026-05-08 01:37 33.88767 -80.92847 35038 ft 431 kts 197°
2026-05-08 01:37 33.85768 -80.93050 35312 ft 432 kts 197°
2026-05-08 01:37 33.82771 -80.93253 35565 ft 432 kts 197°
2026-05-08 01:38 33.79759 -80.93456 35663 ft 434 kts 197°
2026-05-08 01:38 33.73771 -80.93859 35671 ft 430 kts 197°
2026-05-08 01:39 33.67795 -80.94262 35667 ft 430 kts 197°
2026-05-08 01:39 33.61819 -80.94664 35618 ft 430 kts 197°
2026-05-08 01:40 33.55817 -80.95067 35677 ft 433 kts 197°
2026-05-08 01:40 33.49800 -80.95471 35684 ft 432 kts 197°
2026-05-08 01:41 33.43785 -80.95874 35690 ft 433 kts 197°
2026-05-08 01:41 33.37810 -80.96273 35686 ft 433 kts 197°
2026-05-08 01:42 33.31791 -80.96675 35677 ft 434 kts 197°
2026-05-08 01:42 33.25751 -80.97078 35685 ft 435 kts 197°
2026-05-08 01:43 33.19710 -80.97481 35688 ft 435 kts 197°
2026-05-08 01:43 33.13673 -80.97882 35692 ft 435 kts 197°
2026-05-08 01:44 33.07633 -80.98284 35692 ft 435 kts 197°
2026-05-08 01:44 33.01594 -80.98684 35691 ft 435 kts 197°
2026-05-08 01:45 32.95558 -80.99084 35691 ft 434 kts 197°
2026-05-08 01:45 32.89521 -80.99484 35697 ft 435 kts 197°
2026-05-08 01:46 32.83476 -80.99883 35698 ft 435 kts 197°
2026-05-08 01:46 32.77421 -81.00283 35704 ft 437 kts 196°
2026-05-08 01:47 32.71336 -81.00683 35701 ft 437 kts 196°
2026-05-08 01:47 32.65262 -81.01083 35701 ft 437 kts 196°
2026-05-08 01:48 32.56159 -81.01681 35657 ft 437 kts 195°
2026-05-08 01:48 32.50019 -81.01893 35706 ft 444 kts 193°
2026-05-08 01:49 32.43844 -81.02011 35704 ft 443 kts 193°
2026-05-08 01:49 32.37719 -81.02138 35712 ft 443 kts 193°
2026-05-08 01:50 32.31550 -81.02267 35708 ft 443 kts 193°
2026-05-08 01:50 32.25793 -81.02374 35707 ft 445 kts 193°
2026-05-08 01:51 32.20047 -81.02475 35712 ft 445 kts 193°
2026-05-08 01:51 32.13849 -81.02585 35713 ft 445 kts 193°
2026-05-08 01:52 32.07648 -81.02694 35688 ft 445 kts 193°
2026-05-08 01:52 32.01452 -81.02803 35651 ft 446 kts 193°
2026-05-08 01:53 31.95284 -81.02970 35694 ft 447 kts 193°
2026-05-08 01:53 31.89075 -81.03138 35691 ft 446 kts 193°
2026-05-08 01:54 31.82864 -81.03306 35696 ft 446 kts 193°
2026-05-08 01:54 31.76648 -81.03473 35700 ft 446 kts 193°
2026-05-08 01:55 31.70436 -81.03640 35712 ft 447 kts 192°
2026-05-08 01:55 31.64213 -81.03807 35722 ft 446 kts 192°
2026-05-08 01:56 31.58439 -81.04001 35722 ft 444 kts 194°
2026-05-08 01:56 31.52623 -81.04389 35726 ft 444 kts 194°
2026-05-08 01:57 31.46497 -81.04775 35696 ft 444 kts 193°
2026-05-08 01:57 31.40308 -81.05162 35734 ft 446 kts 193°
2026-05-08 01:58 31.34112 -81.05549 35734 ft 446 kts 193°
2026-05-08 01:58 31.27922 -81.05935 35740 ft 446 kts 193°
2026-05-08 01:59 31.21691 -81.06129 35744 ft 449 kts 191°
2026-05-08 01:59 31.15428 -81.06258 35738 ft 452 kts 190°
2026-05-08 02:00 31.09133 -81.06394 35746 ft 452 kts 190°
2026-05-08 02:00 31.02842 -81.06532 35746 ft 452 kts 190°
2026-05-08 02:01 30.96552 -81.06668 35744 ft 452 kts 190°
2026-05-08 02:01 30.90284 -81.06805 35732 ft 453 kts 190°
2026-05-08 02:02 30.83966 -81.06942 35745 ft 454 kts 190°
2026-05-08 02:02 30.78032 -81.07071 35746 ft 454 kts 190°
2026-05-08 02:03 30.72106 -81.07199 35749 ft 454 kts 190°
2026-05-08 02:03 30.65791 -81.07335 35749 ft 454 kts 190°
2026-05-08 02:04 30.59495 -81.07646 35763 ft 454 kts 192°
2026-05-08 02:04 30.53187 -81.08030 35747 ft 453 kts 192°
2026-05-08 02:05 30.46884 -81.08405 35752 ft 454 kts 192°
2026-05-08 02:05 30.40579 -81.08779 35753 ft 454 kts 192°
2026-05-08 02:06 30.34269 -81.09153 35752 ft 454 kts 192°
2026-05-08 02:06 30.27965 -81.09526 35752 ft 453 kts 192°
2026-05-08 02:07 30.21663 -81.09898 35752 ft 453 kts 192°
2026-05-08 02:07 30.15362 -81.10269 35755 ft 454 kts 192°
2026-05-08 02:08 30.10047 -81.09774 35759 ft 471 kts 177°
2026-05-08 02:08 30.02551 -81.08270 35764 ft 472 kts 179°
2026-05-08 02:09 29.96087 -81.06959 35763 ft 471 kts 179°
2026-05-08 02:09 29.90674 -81.05858 35765 ft 471 kts 179°
2026-05-08 02:10 29.84213 -81.04544 35762 ft 471 kts 179°
2026-05-08 02:10 29.77795 -81.03241 35747 ft 472 kts 179°
2026-05-08 02:11 29.71322 -81.01928 35757 ft 472 kts 179°
2026-05-08 02:11 29.64849 -81.00617 35760 ft 472 kts 179°
2026-05-08 02:12 29.58372 -80.99307 35760 ft 472 kts 179°
2026-05-08 02:12 29.51896 -80.97999 35734 ft 472 kts 178°
2026-05-08 02:13 29.45416 -80.96692 35763 ft 474 kts 178°
2026-05-08 02:13 29.38919 -80.95383 35760 ft 474 kts 178°
2026-05-08 02:14 29.32427 -80.94076 35759 ft 474 kts 178°
2026-05-08 02:14 29.25937 -80.92772 35767 ft 474 kts 178°
2026-05-08 02:15 29.19441 -80.91468 35760 ft 474 kts 178°
2026-05-08 02:15 29.12932 -80.90164 35758 ft 475 kts 178°
2026-05-08 02:16 29.06456 -80.88867 35762 ft 476 kts 178°
2026-05-08 02:16 28.99941 -80.87565 35762 ft 475 kts 178°
2026-05-08 02:17 28.93423 -80.86264 35730 ft 475 kts 177°
2026-05-08 02:17 28.86908 -80.84964 35759 ft 476 kts 177°
2026-05-08 02:18 28.80386 -80.83665 35756 ft 475 kts 177°
2026-05-08 02:18 28.73868 -80.82369 35751 ft 475 kts 177°
2026-05-08 02:19 28.67357 -80.81075 35749 ft 475 kts 177°
2026-05-08 02:19 28.60840 -80.79782 35744 ft 475 kts 176°
2026-05-08 02:20 28.54324 -80.78491 35788 ft 475 kts 176°
2026-05-08 02:20 28.47813 -80.77202 35789 ft 475 kts 176°
2026-05-08 02:21 28.41296 -80.75914 35789 ft 475 kts 176°
2026-05-08 02:21 28.34972 -80.73748 35800 ft 485 kts 163°
2026-05-08 02:22 28.28717 -80.70832 35778 ft 486 kts 163°
2026-05-08 02:22 28.22479 -80.67890 35776 ft 485 kts 163°
2026-05-08 02:23 28.16076 -80.65748 35780 ft 479 kts 171°
2026-05-08 02:23 28.09634 -80.63803 35791 ft 479 kts 171°
2026-05-08 02:24 28.03186 -80.61869 35760 ft 479 kts 171°
2026-05-08 02:24 27.96744 -80.59940 35778 ft 479 kts 171°
2026-05-08 02:25 27.90298 -80.58012 35790 ft 479 kts 171°
2026-05-08 02:25 27.83859 -80.56088 35794 ft 479 kts 171°
2026-05-08 02:26 27.77419 -80.54166 35802 ft 479 kts 171°
2026-05-08 02:26 27.70968 -80.52243 35798 ft 480 kts 170°
2026-05-08 02:27 27.64582 -80.50148 35804 ft 485 kts 164°
2026-05-08 02:27 27.58216 -80.47568 35807 ft 486 kts 165°
2026-05-08 02:28 27.51856 -80.45064 35396 ft 478 kts 166°
2026-05-08 02:28 27.48694 -80.43823 34948 ft 471 kts 166°
2026-05-08 02:28 27.45658 -80.42634 34518 ft 466 kts 166°
2026-05-08 02:29 27.42605 -80.41438 34087 ft 462 kts 166°
2026-05-08 02:29 27.39585 -80.40255 33594 ft 458 kts 166°
2026-05-08 02:29 27.36589 -80.39083 33112 ft 454 kts 166°
2026-05-08 02:29 27.33617 -80.37921 32641 ft 450 kts 166°
2026-05-08 02:30 27.30670 -80.36769 32177 ft 447 kts 166°
2026-05-08 02:30 27.27746 -80.35627 31720 ft 444 kts 166°
2026-05-08 02:30 27.24836 -80.34491 31274 ft 441 kts 166°
2026-05-08 02:30 27.21951 -80.33366 30834 ft 438 kts 166°
2026-05-08 02:31 27.19084 -80.32250 30400 ft 435 kts 166°
2026-05-08 02:31 27.16234 -80.31142 29960 ft 432 kts 166°
2026-05-08 02:31 27.13396 -80.30039 29426 ft 430 kts 166°
2026-05-08 02:31 27.10580 -80.28945 28936 ft 428 kts 166°
2026-05-08 02:32 27.07771 -80.27854 28448 ft 426 kts 166°
2026-05-08 02:32 27.04978 -80.26770 27920 ft 425 kts 166°
2026-05-08 02:32 27.02179 -80.25684 27329 ft 426 kts 166°
2026-05-08 02:32 26.99375 -80.24598 26762 ft 427 kts 166°
2026-05-08 02:33 26.96503 -80.23484 26195 ft 428 kts 166°
2026-05-08 02:33 26.93751 -80.22419 25662 ft 428 kts 166°
2026-05-08 02:33 26.91003 -80.21355 25139 ft 428 kts 166°
2026-05-08 02:33 26.88181 -80.20263 24585 ft 429 kts 166°
2026-05-08 02:34 26.85356 -80.19193 24075 ft 429 kts 167°
2026-05-08 02:34 26.82520 -80.18172 23549 ft 426 kts 170°
2026-05-08 02:34 26.79646 -80.17400 22959 ft 424 kts 171°
2026-05-08 02:34 26.76781 -80.16620 22383 ft 424 kts 171°
2026-05-08 02:35 26.73923 -80.15824 21810 ft 423 kts 170°
2026-05-08 02:35 26.71066 -80.15019 21259 ft 422 kts 170°
2026-05-08 02:35 26.68221 -80.14216 20711 ft 421 kts 169°
2026-05-08 02:35 26.65419 -80.13424 20172 ft 420 kts 169°
2026-05-08 02:36 26.62589 -80.12625 19658 ft 419 kts 169°
2026-05-08 02:36 26.59765 -80.11827 19139 ft 418 kts 169°
2026-05-08 02:36 26.56946 -80.11032 18627 ft 416 kts 168°
2026-05-08 02:36 26.54142 -80.10241 18091 ft 415 kts 168°
2026-05-08 02:37 26.51347 -80.09454 17512 ft 413 kts 168°
2026-05-08 02:37 26.48565 -80.08670 16942 ft 411 kts 168°
2026-05-08 02:37 26.45797 -80.07891 16394 ft 409 kts 168°
2026-05-08 02:37 26.43041 -80.07115 15850 ft 407 kts 167°
2026-05-08 02:38 26.40297 -80.06343 15321 ft 405 kts 167°
2026-05-08 02:38 26.37600 -80.05641 14806 ft 402 kts 173°
2026-05-08 02:38 26.34836 -80.05554 14300 ft 396 kts 185°
2026-05-08 02:38 26.32102 -80.05688 13800 ft 386 kts 184°
2026-05-08 02:39 26.29471 -80.05786 13254 ft 371 kts 183°
2026-05-08 02:39 26.26930 -80.05867 12750 ft 360 kts 183°
2026-05-08 02:39 26.24424 -80.05939 12258 ft 360 kts 183°
2026-05-08 02:39 26.21940 -80.06006 11758 ft 351 kts 182°
2026-05-08 02:40 26.19510 -80.06070 11308 ft 349 kts 182°
2026-05-08 02:40 26.17075 -80.06134 10837 ft 350 kts 181°
2026-05-08 02:40 26.14646 -80.06197 10369 ft 350 kts 181°
2026-05-08 02:40 26.12214 -80.06260 9915 ft 349 kts 181°
2026-05-08 02:41 26.09787 -80.06324 9417 ft 349 kts 181°
2026-05-08 02:41 26.07359 -80.06393 8922 ft 348 kts 183°
2026-05-08 02:41 26.04980 -80.06868 8427 ft 347 kts 194°
2026-05-08 02:41 26.02630 -80.07501 7945 ft 347 kts 194°
2026-05-08 02:42 26.00304 -80.08117 7461 ft 338 kts 194°
2026-05-08 02:42 25.98084 -80.08697 6995 ft 326 kts 194°
2026-05-08 02:42 25.95908 -80.09264 6546 ft 316 kts 194°
2026-05-08 02:42 25.93789 -80.09819 6090 ft 308 kts 196°
2026-05-08 02:43 25.91917 -80.10828 5619 ft 296 kts 222°
2026-05-08 02:43 25.90513 -80.12438 5196 ft 286 kts 230°
2026-05-08 02:43 25.89171 -80.14060 4780 ft 285 kts 230°
2026-05-08 02:43 25.88158 -80.15922 4350 ft 282 kts 256°
2026-05-08 02:44 25.87948 -80.18033 4229 ft 270 kts 269°
2026-05-08 02:44 25.87868 -80.20069 4161 ft 258 kts 269°
2026-05-08 02:44 25.87787 -80.22026 4017 ft 251 kts 269°
2026-05-08 02:44 25.87716 -80.23939 3834 ft 246 kts 268°
2026-05-08 02:45 25.87650 -80.25818 3636 ft 241 kts 268°
2026-05-08 02:45 25.87590 -80.27659 3458 ft 237 kts 268°
2026-05-08 02:45 25.87530 -80.29470 3263 ft 233 kts 268°
2026-05-08 02:45 25.87471 -80.31252 3076 ft 229 kts 268°
2026-05-08 02:46 25.87415 -80.32979 3032 ft 218 kts 267°
2026-05-08 02:46 25.87350 -80.34657 3008 ft 216 kts 263°
2026-05-08 02:46 25.86562 -80.35861 2305 ft 213 kts 183°
2026-05-08 02:46 25.85666 -80.34691 731 ft 285 kts 118°
2026-05-08 02:47 25.84734 -80.32934 787 ft 246 kts 148°
2026-05-08 02:47 25.83280 -80.32242 647 ft 215 kts 166°
2026-05-08 02:47 25.81905 -80.31917 641 ft 199 kts 163°
2026-05-08 02:47 25.80705 -80.31238 592 ft 182 kts 143°
2026-05-08 02:48 25.79900 -80.30216 85 ft 170 kts 121°
2026-05-08 02:48 25.79386 -80.29173 16 ft 124 kts 119°
2026-05-08 02:48 25.79201 -80.28711 17 ft 44 kts 88°
2026-05-08 02:48 25.79386 -80.28561 21 ft 38 kts
2026-05-08 02:49 25.79617 -80.28515 22 ft 29 kts 52°
2026-05-08 02:49 25.79686 -80.28367 22 ft 13 kts 45°
2026-05-08 02:49 25.79733 -80.28353 20 ft 0 kts 359°